| time (UTC) | temp F | wind direction | speed MPH | gust MPH | rain 1hr in | rain 24hr in | rain mn in | humidity % | barometer mb |
| 20260904175535 | 90 | 176 | 8.0 | 13.0 | 0.00 | 0.07 | 0.07 | 53 | 1012.4 |
| 20260904174540 | 89 | 224 | 9.0 | 15.0 | 0.00 | 0.07 | 0.07 | 52 | 1012.5 |
| 20260904173531 | 89 | 216 | 9.0 | 16.0 | 0.00 | 0.07 | 0.07 | 53 | 1012.6 |
| 20260904172531 | 88 | 207 | 10.0 | 16.0 | 0.00 | 0.07 | 0.07 | 52 | 1012.7 |
| 20260904171529 | 88 | 192 | 9.0 | 15.0 | 0.00 | 0.07 | 0.07 | 53 | 1012.8 |
| 20260904170529 | 87 | 215 | 10.0 | 14.0 | 0.00 | 0.07 | 0.07 | 54 | 1012.9 |
| 20260904165529 | 86 | 219 | 10.0 | 17.0 | 0.00 | 0.07 | 0.07 | 55 | 1013.1 |
| 20260904164529 | 86 | 209 | 11.0 | 16.0 | 0.00 | 0.07 | 0.07 | 55 | 1013.1 |
| 20260904163530 | 86 | 194 | 10.0 | 18.0 | 0.00 | 0.07 | 0.07 | 57 | 1013.1 |
| 20260904162531 | 85 | 180 | 11.0 | 18.0 | 0.00 | 0.07 | 0.07 | 59 | 1013.2 |
| 20260904161530 | 84 | 161 | 11.0 | 19.0 | 0.00 | 0.07 | 0.07 | 64 | 1013.2 |
| 20260904160525 | 83 | 197 | 10.0 | 21.0 | 0.00 | 0.07 | 0.07 | 74 | 1013.1 |
| 20260904160010 | 82 | 200 | 8.0 | 15.0 | 0.01 | 0.07 | 0.07 | 75 | 1013.1 |
| 20260904154523 | 82 | 178 | 9.0 | 14.0 | 0.03 | 0.07 | 0.07 | 75 | 1013.1 |
| 20260904153524 | 82 | 154 | 9.0 | 19.0 | 0.05 | 0.07 | 0.07 | 76 | 1012.9 |
| 20260904152524 | 82 | 193 | 8.0 | 15.0 | 0.05 | 0.07 | 0.07 | 80 | 1012.9 |
| 20260904151522 | 81 | 186 | 6.0 | 12.0 | 0.05 | 0.07 | 0.07 | 81 | 1013.0 |
| 20260904150528 | 80 | 182 | 7.0 | 11.0 | 0.05 | 0.07 | 0.07 | 82 | 1012.9 |
| 20260904145523 | 80 | 185 | 7.0 | 11.0 | 0.04 | 0.06 | 0.06 | 82 | 1012.9 |
| 20260904144524 | 81 | 220 | 6.0 | 11.0 | 0.02 | 0.04 | 0.04 | 81 | 1012.8 |
| 20260904143519 | 80 | 172 | 5.0 | 11.0 | 0.00 | 0.02 | 0.02 | 83 | 1012.7 |
| 20260904142518 | 80 | 148 | 5.0 | 13.0 | 0.00 | 0.02 | 0.02 | 84 | 1012.6 |
| 20260904141521 | 79 | 134 | 4.0 | 10.0 | 0.00 | 0.02 | 0.02 | 83 | 1012.7 |
| 20260904140519 | 80 | 167 | 2.0 | 7.0 | 0.00 | 0.02 | 0.02 | 83 | 1012.8 |
| 20260904135954 | 80 | 157 | 1.0 | 7.0 | 0.00 | 0.02 | 0.02 | 84 | 1012.7 |
| 20260904134517 | 80 | 139 | 2.0 | 6.0 | 0.00 | 0.02 | 0.02 | 84 | 1012.6 |
| 20260904134016 | 79 | 183 | 2.0 | 6.0 | 0.00 | 0.02 | 0.02 | 84 | 1012.5 |
| 20260904132517 | 79 | 146 | 2.0 | 8.0 | 0.00 | 0.02 | 0.02 | 84 | 1012.4 |
| 20260904131521 | 79 | 139 | 4.0 | 14.0 | 0.00 | 0.02 | 0.02 | 84 | 1012.3 |
| 20260904130946 | 79 | 147 | 4.0 | 9.0 | 0.00 | 0.02 | 0.02 | 85 | 1012.2 |
| 20260904125954 | 78 | 149 | 2.0 | 7.0 | 0.00 | 0.02 | 0.02 | 86 | 1012.1 |
| 20260904124511 | 78 | 178 | 2.0 | 6.0 | 0.00 | 0.02 | 0.02 | 86 | 1011.9 |
| 20260904123511 | 78 | 154 | 3.0 | 7.0 | 0.00 | 0.02 | 0.02 | 86 | 1012.0 |
| 20260904123000 | 78 | 150 | 2.0 | 6.0 | 0.00 | 0.02 | 0.02 | 86 | 1012.0 |
| 20260904122008 | 78 | 175 | 1.0 | 6.0 | 0.00 | 0.02 | 0.02 | 86 | 1011.9 |
| 20260904120512 | 78 | 168 | 2.0 | 6.0 | 0.00 | 0.02 | 0.02 | 86 | 1011.8 |
| 20260904115510 | 78 | 161 | 2.0 | 6.0 | 0.00 | 0.02 | 0.02 | 86 | 1011.6 |
| 20260904114512 | 78 | 153 | 4.0 | 7.0 | 0.00 | 0.02 | 0.02 | 86 | 1011.5 |
| 20260904113506 | 78 | 155 | 3.0 | 7.0 | 0.00 | 0.02 | 0.02 | 86 | 1011.4 |
| 20260904112509 | 78 | 150 | 1.0 | 6.0 | 0.00 | 0.02 | 0.02 | 86 | 1011.4 |
| 20260904111506 | 78 | 162 | 1.0 | 7.0 | 0.00 | 0.02 | 0.02 | 86 | 1011.5 |
| 20260904110505 | 78 | 167 | 2.0 | 6.0 | 0.00 | 0.02 | 0.02 | 86 | 1011.3 |
| 20260904110431 | 78 | 163 | 2.0 | 7.0 | 0.00 | 0.02 | 0.02 | 86 | 1011.3 |
| 20260904104505 | 78 | 165 | 2.0 | 7.0 | 0.00 | 0.02 | 0.02 | 85 | 1011.4 |
| 20260904103507 | 78 | 144 | 2.0 | 7.0 | 0.02 | 0.02 | 0.02 | 85 | 1011.3 |
| 20260904102507 | 78 | 153 | 2.0 | 8.0 | 0.02 | 0.02 | 0.02 | 85 | 1011.2 |
| 20260904101506 | 78 | 155 | 2.0 | 6.0 | 0.02 | 0.02 | 0.02 | 84 | 1011.1 |
| 20260904100501 | 78 | 167 | 3.0 | 8.0 | 0.02 | 0.02 | 0.02 | 84 | 1011.2 |
| 20260904095501 | 78 | 191 | 6.0 | 13.0 | 0.02 | 0.02 | 0.02 | 83 | 1011.1 |
| 20260904094500 | 79 | 192 | 7.0 | 13.0 | 0.02 | 0.02 | 0.02 | 82 | 1010.9 |
| 20260904093946 | 80 | 159 | 6.0 | 14.0 | 0.00 | 0.00 | 0.00 | 81 | 1011.1 |
| 20260904092459 | 80 | 157 | 5.0 | 11.0 | 0.00 | 0.00 | 0.00 | 81 | 1011.1 |
| 20260904091500 | 79 | 159 | 5.0 | 11.0 | 0.00 | 0.00 | 0.00 | 81 | 1010.9 |
| 20260904090500 | 80 | 149 | 5.0 | 10.0 | 0.00 | 0.00 | 0.00 | 81 | 1010.8 |
| 20260904085500 | 80 | 194 | 5.0 | 11.0 | 0.00 | 0.00 | 0.00 | 81 | 1010.9 |
| 20260904085424 | 79 | 157 | 5.0 | 10.0 | 0.00 | 0.00 | 0.00 | 80 | 1010.8 |
| 20260904083456 | 79 | 181 | 5.0 | 11.0 | 0.00 | 0.00 | 0.00 | 80 | 1010.8 |
| 20260904082453 | 79 | 166 | 4.0 | 11.0 | 0.00 | 0.00 | 0.00 | 80 | 1010.9 |
| 20260904081455 | 79 | 157 | 4.0 | 10.0 | 0.00 | 0.00 | 0.00 | 80 | 1010.9 |
| 20260904080453 | 79 | 167 | 5.0 | 12.0 | 0.00 | 0.00 | 0.00 | 80 | 1011.1 |
| 20260904080410 | 79 | 163 | 5.0 | 9.0 | 0.00 | 0.00 | 0.00 | 79 | 1010.9 |
| 20260904074455 | 79 | 165 | 4.0 | 12.0 | 0.00 | 0.00 | 0.00 | 79 | 1010.8 |
| 20260904073455 | 80 | 148 | 4.0 | 10.0 | 0.00 | 0.00 | 0.00 | 78 | 1010.9 |
| 20260904072455 | 80 | 153 | 5.0 | 13.0 | 0.00 | 0.00 | 0.00 | 78 | 1010.9 |
| 20260904071454 | 80 | 165 | 5.0 | 10.0 | 0.00 | 0.00 | 0.00 | 78 | 1011.1 |
| 20260904070449 | 80 | 183 | 5.0 | 12.0 | 0.00 | 0.00 | 0.00 | 77 | 1011.2 |
| 20260904065452 | 80 | 158 | 5.0 | 11.0 | 0.00 | 0.00 | 0.00 | 76 | 1011.3 |
| 20260904064449 | 80 | 158 | 5.0 | 13.0 | 0.00 | 0.00 | 0.00 | 75 | 1011.5 |
| 20260904063448 | 80 | 162 | 5.0 | 12.0 | 0.00 | 0.00 | 0.00 | 74 | 1011.3 |
| 20260904062449 | 80 | 163 | 6.0 | 13.0 | 0.00 | 0.00 | 0.00 | 73 | 1011.3 |
| 20260904061449 | 80 | 149 | 5.0 | 15.0 | 0.00 | 0.00 | 0.00 | 72 | 1011.3 |
| 20260904060449 | 80 | 143 | 4.0 | 13.0 | 0.00 | 0.00 | 0.00 | 72 | 1011.5 |
| 20260904055448 | 81 | 178 | 4.0 | 9.0 | 0.00 | 0.00 | 0.00 | 71 | 1011.3 |
| 20260904054449 | 81 | 140 | 4.0 | 13.0 | 0.00 | 0.00 | 0.00 | 70 | 1011.6 |
| 20260904053443 | 81 | 171 | 3.0 | 8.0 | 0.00 | 0.00 | 0.00 | 69 | 1011.5 |
| 20260904052442 | 81 | 148 | 4.0 | 12.0 | 0.00 | 0.00 | 0.00 | 69 | 1011.2 |
| 20260904051443 | 82 | 142 | 4.0 | 17.0 | 0.00 | 0.00 | 0.00 | 68 | 1010.9 |
| 20260904050441 | 82 | 182 | 4.0 | 10.0 | 0.00 | 0.00 | 0.00 | 67 | 1011.3 |
| 20260904045441 | 82 | 137 | 3.0 | 10.0 | 0.00 | 0.00 | 0.00 | 67 | 1011.4 |
| 20260904044440 | 82 | 146 | 3.0 | 10.0 | 0.00 | 0.00 | 0.00 | 67 | 1011.4 |
| 20260904043439 | 82 | 154 | 3.0 | 9.0 | 0.00 | 0.00 | 0.00 | 66 | 1011.3 |
| 20260904042441 | 82 | 154 | 3.0 | 9.0 | 0.00 | 0.00 | 0.00 | 66 | 1011.2 |
| 20260904041920 | 82 | 181 | 3.0 | 12.0 | 0.00 | 0.00 | 0.00 | 66 | 1011.2 |
| 20260904040435 | 83 | 101 | 2.0 | 9.0 | 0.00 | 0.00 | 0.00 | 66 | 1011.2 |
| 20260904035438 | 83 | 168 | 2.0 | 7.0 | 0.00 | 0.00 | 0.00 | 66 | 1011.2 |
| 20260904034435 | 83 | 137 | 3.0 | 9.0 | 0.00 | 0.00 | 0.00 | 66 | 1011.2 |
| 20260904033434 | 83 | 149 | 3.0 | 10.0 | 0.00 | 0.00 | 0.00 | 65 | 1011.1 |
| 20260904032920 | 84 | 125 | 2.0 | 7.0 | 0.00 | 0.00 | 0.00 | 65 | 1010.9 |
| 20260904031433 | 84 | 98 | 3.0 | 8.0 | 0.00 | 0.00 | 0.00 | 65 | 1010.8 |
| 20260904030433 | 84 | 144 | 3.0 | 7.0 | 0.00 | 0.00 | 0.00 | 64 | 1010.8 |
| 20260904025433 | 84 | 112 | 2.0 | 7.0 | 0.00 | 0.00 | 0.00 | 63 | 1010.7 |
| 20260904024925 | 84 | 121 | 2.0 | 8.0 | 0.00 | 0.00 | 0.00 | 62 | 1010.7 |
| 20260904023429 | 85 | 135 | 3.0 | 11.0 | 0.00 | 0.00 | 0.00 | 62 | 1010.5 |
| 20260904022429 | 85 | 129 | 3.0 | 8.0 | 0.00 | 0.00 | 0.00 | 62 | 1010.4 |
| 20260904021430 | 85 | 99 | 4.0 | 12.0 | 0.00 | 0.00 | 0.00 | 61 | 1010.3 |
| 20260904020429 | 85 | 165 | 3.0 | 9.0 | 0.00 | 0.00 | 0.00 | 60 | 1010.1 |
| 20260904015438 | 85 | 125 | 4.0 | 13.0 | 0.00 | 0.00 | 0.00 | 60 | 1009.9 |
| 20260904014427 | 86 | 144 | 4.0 | 10.0 | 0.00 | 0.00 | 0.00 | 60 | 1009.8 |
| 20260904013427 | 86 | 149 | 3.0 | 10.0 | 0.00 | 0.00 | 0.00 | 61 | 1009.6 |
| 20260904012427 | 86 | 86 | 3.0 | 14.0 | 0.00 | 0.00 | 0.00 | 61 | 1009.4 |
| 20260904011432 | 87 | 151 | 3.0 | 11.0 | 0.00 | 0.00 | 0.00 | 61 | 1009.2 |
| 20260904010428 | 87 | 157 | 3.0 | 8.0 | 0.00 | 0.00 | 0.00 | 61 | 1009.1 |
| 20260904005423 | 88 | 138 | 4.0 | 11.0 | 0.00 | 0.00 | 0.00 | 60 | 1009.0 |
| 20260904004422 | 88 | 198 | 4.0 | 10.0 | 0.00 | 0.00 | 0.00 | 60 | 1009.0 |
| 20260904003423 | 88 | 82 | 4.0 | 9.0 | 0.00 | 0.00 | 0.00 | 60 | 1008.9 |
| 20260904002422 | 89 | 176 | 4.0 | 14.0 | 0.00 | 0.00 | 0.00 | 60 | 1009.0 |
| 20260904001423 | 89 | 184 | 3.0 | 11.0 | 0.00 | 0.00 | 0.00 | 59 | 1009.0 |
| 20260904000421 | 90 | 101 | 4.0 | 9.0 | 0.00 | 0.00 | 0.00 | 59 | 1008.8 |
| 20260903235421 | 90 | 141 | 4.0 | 10.0 | 0.00 | 0.00 | 0.00 | 59 | 1008.8 |
| 20260903234423 | 90 | 152 | 3.0 | 9.0 | 0.00 | 0.00 | 0.00 | 59 | 1008.7 |
| 20260903233417 | 91 | 159 | 3.0 | 8.0 | 0.00 | 0.00 | 0.00 | 58 | 1008.8 |
| 20260903232417 | 91 | 207 | 3.0 | 8.0 | 0.00 | 0.00 | 0.00 | 58 | 1008.6 |
| 20260903231415 | 91 | 136 | 3.0 | 8.0 | 0.00 | 0.00 | 0.00 | 58 | 1008.4 |
| 20260903230417 | 92 | 144 | 3.0 | 9.0 | 0.00 | 0.00 | 0.00 | 58 | 1008.5 |
| 20260903225415 | 92 | 202 | 4.0 | 9.0 | 0.00 | 0.00 | 0.00 | 58 | 1008.5 |
| 20260903224415 | 92 | 149 | 3.0 | 9.0 | 0.00 | 0.00 | 0.00 | 58 | 1008.4 |
| 20260903223420 | 92 | 92 | 4.0 | 11.0 | 0.00 | 0.00 | 0.00 | 58 | 1008.4 |
| 20260903222415 | 92 | 143 | 3.0 | 10.0 | 0.00 | 0.00 | 0.00 | 57 | 1008.6 |
| 20260903221416 | 92 | 158 | 4.0 | 11.0 | 0.00 | 0.00 | 0.00 | 59 | 1008.5 |
| 20260903220411 | 91 | 159 | 5.0 | 11.0 | 0.00 | 0.00 | 0.00 | 59 | 1008.6 |
| 20260903215411 | 91 | 170 | 5.0 | 11.0 | 0.00 | 0.00 | 0.00 | 60 | 1008.6 |
| 20260903214407 | 91 | 158 | 3.0 | 9.0 | 0.00 | 0.00 | 0.00 | 59 | 1008.6 |
| 20260903213405 | 91 | 128 | 3.0 | 10.0 | 0.00 | 0.00 | 0.00 | 60 | 1008.8 |
| 20260903212405 | 91 | 97 | 3.0 | 10.0 | 0.00 | 0.00 | 0.00 | 60 | 1008.8 |
| 20260903211403 | 91 | 150 | 3.0 | 10.0 | 0.00 | 0.00 | 0.00 | 60 | 1008.8 |
| 20260903210401 | 91 | 140 | 4.0 | 11.0 | 0.00 | 0.00 | 0.00 | 60 | 1009.0 |
| 20260903205403 | 92 | 149 | 4.0 | 13.0 | 0.00 | 0.00 | 0.00 | 59 | 1009.0 |
| 20260903204359 | 92 | 153 | 4.0 | 10.0 | 0.00 | 0.00 | 0.00 | 58 | 1009.2 |
| 20260903203358 | 93 | 186 | 5.0 | 14.0 | 0.00 | 0.00 | 0.00 | 57 | 1009.4 |
| 20260903202359 | 93 | 190 | 7.0 | 13.0 | 0.00 | 0.00 | 0.00 | 57 | 1009.4 |
| 20260903201833 | 92 | 124 | 8.0 | 16.0 | 0.00 | 0.00 | 0.00 | 58 | 1009.4 |
| 20260903200355 | 91 | 167 | 9.0 | 18.0 | 0.00 | 0.00 | 0.00 | 59 | 1009.4 |
| 20260903195356 | 91 | 157 | 10.0 | 16.0 | 0.00 | 0.00 | 0.00 | 59 | 1009.5 |
| 20260903194357 | 92 | 204 | 10.0 | 17.0 | 0.00 | 0.00 | 0.00 | 59 | 1009.7 |
| 20260903193356 | 92 | 205 | 7.0 | 15.0 | 0.00 | 0.00 | 0.00 | 58 | 1009.8 |
| 20260903192846 | 91 | 194 | 8.0 | 17.0 | 0.00 | 0.00 | 0.00 | 58 | 1009.9 |
| 20260903191847 | 91 | 183 | 8.0 | 17.0 | 0.00 | 0.00 | 0.00 | 58 | 1010.1 |
| 20260903190355 | 91 | 180 | 5.0 | 12.0 | 0.00 | 0.00 | 0.00 | 60 | 1010.3 |
| 20260903185828 | 91 | 199 | 5.0 | 18.0 | 0.00 | 0.00 | 0.00 | 59 | 1010.5 |
| 20260903184839 | 91 | 136 | 7.0 | 16.0 | 0.00 | 0.00 | 0.00 | 59 | 1010.6 |
| 20260903183352 | 91 | 173 | 6.0 | 15.0 | 0.00 | 0.00 | 0.00 | 60 | 1010.6 |
| 20260903182825 | 90 | 161 | 6.0 | 15.0 | 0.00 | 0.00 | 0.00 | 61 | 1010.7 |
| 20260903181352 | 90 | 189 | 7.0 | 17.0 | 0.00 | 0.00 | 0.00 | 61 | 1010.8 |
| 20260903180834 | 90 | 193 | 7.0 | 16.0 | 0.00 | 0.00 | 0.00 | 61 | 1010.9 |